Flag for Slovakia Weather past 2 weeks in Prešov, Slovakia

Now
63 °F

Clear.


Feels Like: 63 °F
Forecast: 61 / 83 °F
Wind: 3 mph from Northwest

Location: Kosice - Barca

Current Time: Jul 26, 2014 at 4:01:32 AM

Latest Report: Jul 26, 2014 at 3:30 AM


Visibility: 10 mi

Pressure: 29.98 "Hg

Humidity: 94%

Dew point: 61 °F

Location of PrešovLocation

Historic Weather in Prešov — Graph

°F

Prešov temperature yesterday

Maximum temperature yesterday: 79 °F (at 11:30 AM)
Minimum temperature yesterday: 61 °F (at 1:00 AM)
Average temperature yesterday: 70 °F

Past Weeks' High & Low Weather Summary

 TemperatureHumidityPressure
High86 °F (Jul 20, 12:30 PM)100% (Jul 11, 10:30 PM)30.09 "Hg (Jul 11, 10:30 PM)
Low54 °F (Jul 13, 1:30 AM)31% (Jul 19, 6:00 PM)29.59 "Hg (Jul 11, 5:30 AM)
Average71 °F71%29.91 "Hg
* Reported Jul 11 3:00 AM — Jul 26 3:00 AM, Prešov, Weather by CustomWeather, © 2014

Note: Actual official high and low records may vary slightly from our data, if they occured in-between our weather recording intervals... More about our weather records

Advertising

Prešov weather history for previous 24 hours

 ConditionsComfort  
Time TempWeatherWind HumidityBarometerVisibility
3:00 AM
Jul 26
63 °FClear.2 mph88%29.98 "Hg10 mi
2:30 AM63 °FClear.2 mph94%29.98 "Hg10 mi
2:00 AM63 °FClear.2 mph94%29.98 "Hg10 mi
1:30 AM64 °FPassing clouds.3 mph88%29.98 "HgN/A
1:00 AM64 °FClear.5 mph83%29.98 "Hg10 mi
12:30 AM64 °FClear.2 mph83%29.98 "Hg10 mi
12:00 AM64 °FClear.6 mph88%29.98 "Hg10 mi
11:30 PM
Jul 25
64 °FClear.5 mph88%29.98 "Hg10 mi
11:00 PM66 °FClear.6 mph83%29.98 "Hg10 mi
10:30 PM66 °FClear.6 mph88%29.98 "Hg10 mi
10:00 PM68 °FClear.6 mph83%29.98 "Hg10 mi
9:30 PM68 °FClear.6 mph88%29.98 "Hg10 mi
9:00 PM70 °FSunny.3 mph83%29.95 "Hg10 mi
8:30 PM73 °FSunny.1 mph74%29.95 "Hg10 mi
8:00 PM75 °FSunny.3 mph65%29.95 "Hg10 mi
7:30 PM77 °FSunny.1 mph57%29.92 "Hg10 mi
7:00 PM79 °FSunny.No wind54%29.92 "Hg10 mi
6:30 PM77 °FPassing clouds.1 mph61%29.92 "HgN/A
6:00 PM77 °FSunny.1 mph57%29.92 "Hg10 mi
5:30 PM79 °FPassing clouds.5 mph58%29.92 "HgN/A
5:00 PM79 °FSunny.1 mph51%29.92 "Hg10 mi
4:30 PM79 °FPassing clouds.3 mph48%29.92 "HgN/A
4:00 PM79 °FSunny.1 mph54%29.92 "Hg10 mi
3:30 PM79 °FSunny.1 mph54%29.95 "Hg10 mi
3:00 PM77 °FSunny.1 mph61%29.95 "Hg10 mi
2:30 PM75 °FSunny.1 mph69%29.95 "Hg10 mi
2:00 PM75 °FScattered clouds.3 mph65%29.95 "HgN/A
1:30 PM73 °FScattered clouds.6 mph65%29.95 "HgN/A
1:00 PM75 °FScattered clouds.5 mph69%29.95 "HgN/A
12:30 PM77 °FScattered clouds.5 mph65%29.95 "HgN/A
12:00 PM77 °FScattered clouds.6 mph61%29.95 "HgN/A
11:30 AM79 °FScattered clouds.2 mph58%29.95 "HgN/A
11:00 AM77 °FScattered clouds.5 mph65%29.95 "HgN/A
10:30 AM75 °FPassing clouds.5 mph65%29.95 "HgN/A
10:00 AM75 °FPassing clouds.5 mph69%29.95 "HgN/A
9:30 AM73 °FPassing clouds.5 mph74%29.95 "HgN/A
9:00 AM72 °FSunny.3 mph78%29.95 "Hg10 mi
8:30 AM70 °FPassing clouds.7 mph83%29.92 "HgN/A
8:00 AM68 °FPassing clouds.5 mph88%29.92 "HgN/A
7:30 AM66 °FPassing clouds.3 mph94%29.92 "HgN/A
7:00 AM64 °FScattered clouds.3 mph94%29.92 "HgN/A
6:30 AM64 °FScattered clouds.3 mph94%29.92 "HgN/A
6:00 AM63 °FScattered clouds.2 mph94%29.92 "HgN/A
5:30 AM63 °FPassing clouds.5 mph94%29.92 "HgN/A
5:00 AM63 °FPassing clouds.5 mph94%29.92 "HgN/A
4:30 AM61 °FPassing clouds.5 mph100%29.92 "HgN/A
4:00 AM63 °FPassing clouds.5 mph94%29.89 "HgN/A
Weather by CustomWeather, © 2014

See weather overviewHow to use our weather pages